Regional Weather Roundup
Issued by NWS

Home | Current Version | Previous Version | Graphics & Text | Print | Product List | Glossary On
Versions: 1 2 3 4 5 6 7 8 9 10 11 12 13 14 15 16 17 18 19 20 21 22 23 24 25 26 27 28 29 30 31 32 33 34 35 36 37 38 39 40 41 42 43 44 45 46 47 48 49 50
550
ASUS43 KOAX 230402
RWRNE

WEATHER ROUNDUP FOR NEBRASKA
NATIONAL WEATHER SERVICE OMAHA NE
1100 PM CDT SAT JUL 22 2017

NOTES: SATELLITE DATA IS BEING USED TO AUGMENT CLOUD COVER ABOVE
       12000 FEET.
       "FAIR" INDICATES FEW OR NO CLOUDS BELOW 12,000 FEET WITH NO
       SIGNIFICANT WEATHER AND/OR OBSTRUCTIONS TO VISIBILITY.


NEZ001>004-019>022-054>056-230500-
NEBRASKA PANHANDLE

CITY           SKY/WX    TMP DP  RH WIND       PRES   REMARKS
SCOTTSBLUFF    CLEAR     71  55  56 SE5       30.11R
ALLIANCE       CLEAR     66  44  45 S8        30.11R
CHADRON        CLEAR     74  52  46 S7        30.07R
GORDON         FAIR      65  60  83 N3        30.09S
KIMBALL        CLOUDY    67  55  64 S9        30.19R
SIDNEY         CLEAR     66  48  52 S5        30.16R
$$

NEZ057>060-069>072-079>082-230500-
SOUTHWEST NEBRASKA

CITY           SKY/WX    TMP DP  RH WIND       PRES   REMARKS
NORTH PLATTE   CLEAR     67  58  72 CALM      30.06R
IMPERIAL       CLEAR     69  54  58 S6        30.09R
LEXINGTON      CLEAR     69  66  89 CALM      30.04R
MCCOOK         PTCLDY    70  60  70 N6        30.03S
OGALLALA       CLEAR     67  49  52 CALM      30.09R
$$

NEZ005>010-023>029-035>040-094-230500-
NORTH CENTRAL NEBRASKA

CITY           SKY/WX    TMP DP  RH WIND       PRES   REMARKS
VALENTINE      CLEAR     73  49  42 NW3       30.01R
AINSWORTH      CLEAR     71  58  63 S8        30.01S
BROKEN BOW     CLEAR     66  62  87 CALM      30.03R
O`NEILL        CLEAR     71  63  77 S7        29.99R
ORD            CLEAR     70  65  84 CALM      29.99R
THEDFORD       CLEAR     71  53  51 CALM      30.05R
$$

NEZ041-046>049-061>064-073>077-083>087-230500-
SOUTH CENTRAL NEBRASKA

CITY           SKY/WX    TMP DP  RH WIND       PRES   REMARKS
GRAND ISLAND   PTCLDY    70  70 100 S7        30.02R
AURORA         CLOUDY    74  72  93 S5        30.00R
HASTINGS       PTCLDY    76  70  82 NW3       30.01R
HEBRON         CLOUDY    78  67  68 SW5       29.96F
HOLDREGE       PTCLDY    72  69  91 E6        30.02S
KEARNEY        PTCLDY    71  69  93 E6        30.03R
$$

NEZ011>018-030>034-042>045-230500-
NORTHEAST NEBRASKA

CITY           SKY/WX    TMP DP  RH WIND       PRES   REMARKS
NORFOLK        CLEAR     70  67  90 S10       29.97R
ALBION         CLEAR     65  64  94 CALM      29.99S
BLAIR          RAIN      74  72  93 CALM      29.93S
COLUMBUS       PTCLDY    67  65  93 N8        29.96F
FREMONT        PTCLDY    74  70  85 N5        29.92F
TEKAMAH        PTCLDY    70  68  93 W6        29.91F
WAYNE          FOG       66  65  99 CALM      29.94S VSB 1
$$

NEZ050>053-065>068-078-088>093-230500-
SOUTHEAST NEBRASKA

CITY           SKY/WX    TMP DP  RH WIND       PRES   REMARKS
LINCOLN        CLOUDY    80  71  74 SW7       29.95R
OMAHA EPPLEY   MOCLDY    77  72  84 N9        29.90F
BEATRICE       CLOUDY    80  75  86 CALM      29.96R
FALLS CITY     CLOUDY    81  77  88 W6        29.93R
NEBRASKA CITY  CLOUDY    79  79 100 S3        29.91F
PLATTSMOUTH    CLOUDY    77  72  83 N5        29.92S
$$

NEZ044-045-051>053-067-230500-
OMAHA AREA

CITY           SKY/WX    TMP DP  RH WIND       PRES   REMARKS
OMAHA EPPLEY   MOCLDY    77  72  84 N9        29.90F
BLAIR          RAIN      74  72  93 CALM      29.93S
FREMONT        PTCLDY    74  70  85 N5        29.92F
MILLARD        CLOUDY    80  73  80 CALM      29.93R
PLATTSMOUTH    CLOUDY    77  72  83 N5        29.92S
WAHOO          FAIR      70  68  93 CALM      29.94S
$$




USA.gov is the U.S. government's official web portal to all federal, state and local government web resources and services.